TimeEDT,TemperatureF,Dew PointF,Humidity,Sea Level PressureIn,VisibilityMPH,Wind Direction,Wind SpeedMPH,Gust SpeedMPH,PrecipitationIn,Events,Conditions,WindDirDegrees,DateUTC
12:53 AM,48.9,41.0,74,30.17,10.0,SSW,5.8,-,0.00,Rain,Light Rain,200,2013-04-04 04:53:00
1:53 AM,46.9,44.1,90,30.17,8.0,Calm,Calm,-,0.01,Rain,Light Rain,0,2013-04-04 05:53:00
2:53 AM,46.9,45.0,93,30.14,8.0,Calm,Calm,-,0.04,Rain,Light Rain,0,2013-04-04 06:53:00
3:53 AM,46.9,45.0,93,30.13,9.0,Calm,Calm,-,0.02,Rain,Light Rain,0,2013-04-04 07:53:00
4:53 AM,46.9,43.0,86,30.11,10.0,NNE,3.5,-,0.03,Rain,Light Rain,30,2013-04-04 08:53:00
5:53 AM,45.0,39.9,82,30.09,7.0,NNE,5.8,-,0.04,Rain,Light Rain,30,2013-04-04 09:53:00
6:53 AM,43.0,39.9,89,30.08,3.0,NNE,9.2,-,0.12,Rain,Rain,30,2013-04-04 10:53:00
7:11 AM,42.8,41.0,93,30.09,2.5,North,5.8,-,0.04,Rain,Heavy Rain,360,2013-04-04 11:11:00
7:31 AM,42.8,41.0,93,30.09,1.5,NNE,10.4,-,0.13,Rain,Heavy Rain,20,2013-04-04 11:31:00
7:49 AM,42.8,42.8,100,30.10,1.5,North,5.8,-,0.24,Rain,Heavy Rain,10,2013-04-04 11:49:00
7:53 AM,43.0,42.1,97,30.09,1.5,North,6.9,-,0.25,Rain,Heavy Rain,10,2013-04-04 11:53:00
8:35 AM,42.8,42.8,100,30.10,1.2,NNE,8.1,-,0.22,Rain,Rain,20,2013-04-04 12:35:00
8:50 AM,42.8,42.8,100,30.11,1.2,NNE,4.6,-,0.29,Rain,Heavy Rain,20,2013-04-04 12:50:00
8:53 AM,43.0,42.1,97,30.11,1.2,NNE,5.8,-,0.30,Rain,Rain,20,2013-04-04 12:53:00
9:09 AM,42.8,42.8,100,30.11,1.5,NNE,4.6,-,0.04,Rain,Light Rain,20,2013-04-04 13:09:00
9:34 AM,42.8,42.8,100,30.10,2.0,NNE,6.9,-,0.04,Rain,Light Rain,30,2013-04-04 13:34:00
9:49 AM,42.8,42.8,100,30.10,3.0,North,6.9,-,0.04,Rain,Light Rain,10,2013-04-04 13:49:00
9:53 AM,43.0,42.1,97,30.11,3.0,NNE,5.8,-,0.04,Rain,Light Rain,20,2013-04-04 13:53:00
10:16 AM,42.8,41.0,93,30.09,2.0,NNE,9.2,-,0.01,Rain,Light Rain,30,2013-04-04 14:16:00
10:28 AM,42.8,42.8,100,30.10,1.5,NNE,8.1,-,0.01,Rain,Light Rain,20,2013-04-04 14:28:00
10:51 AM,42.8,42.8,100,30.10,1.5,North,6.9,-,0.05,Rain,Rain,10,2013-04-04 14:51:00
10:53 AM,43.0,42.1,97,30.10,1.5,North,6.9,-,0.05,Rain,Rain,10,2013-04-04 14:53:00
11:35 AM,42.8,42.8,100,30.11,2.0,NNE,5.8,-,0.11,Rain,Light Rain,20,2013-04-04 15:35:00
11:53 AM,44.1,43.0,96,30.12,2.0,NNE,5.8,-,0.13,Rain,Rain,20,2013-04-04 15:53:00
11:55 AM,44.6,42.8,93,30.12,1.8,NNE,5.8,-,0.01,Rain,Rain,20,2013-04-04 15:55:00
12:53 PM,44.1,43.0,96,30.10,1.8,NE,8.1,-,0.14,Rain,Rain,50,2013-04-04 16:53:00
1:19 PM,44.6,42.8,93,30.09,4.0,East,5.8,-,0.03,Rain,Light Rain,90,2013-04-04 17:19:00
1:49 PM,44.6,44.6,100,30.08,2.0,ESE,3.5,-,0.03,Rain,Light Rain,110,2013-04-04 17:49:00
1:53 PM,45.0,44.1,97,30.09,2.0,East,3.5,-,0.03,Rain,Light Rain,90,2013-04-04 17:53:00
1:57 PM,44.6,44.6,100,30.08,1.8,East,3.5,-,0.01,Rain,Light Rain,100,2013-04-04 17:57:00
2:29 PM,44.6,42.8,93,30.07,2.5,ENE,3.5,-,0.02,Rain,Light Rain,70,2013-04-04 18:29:00
2:53 PM,44.6,42.8,93,30.06,2.5,ENE,4.6,-,N/A,Rain,Light Rain,60,2013-04-04 18:53:00
3:21 PM,44.6,42.8,93,30.05,3.0,East,5.8,-,0.00,Rain,Light Rain,80,2013-04-04 19:21:00
3:41 PM,44.6,44.6,100,30.04,2.0,NE,4.6,-,0.01,Rain,Light Rain,40,2013-04-04 19:41:00
3:47 PM,44.6,44.6,100,30.03,1.8,NE,4.6,-,0.01,Rain,Light Rain,40,2013-04-04 19:47:00
3:53 PM,45.0,44.1,97,30.04,1.8,NE,5.8,-,0.01,Rain,Light Rain,40,2013-04-04 19:53:00
4:05 PM,44.6,42.8,93,30.03,3.0,ENE,6.9,-,0.00,Rain,Light Rain,60,2013-04-04 20:05:00
4:27 PM,44.6,42.8,93,30.03,3.0,NE,4.6,-,0.01,Rain,Light Rain,50,2013-04-04 20:27:00
4:38 PM,44.6,44.6,100,30.02,2.5,NE,4.6,-,0.03,Rain,Rain,40,2013-04-04 20:38:00
4:50 PM,44.6,44.6,100,30.02,2.0,NE,4.6,-,N/A,Rain,Light Rain,40,2013-04-04 20:50:00
4:53 PM,45.0,44.1,97,30.03,2.0,NNE,4.6,-,0.03,Rain,Light Rain,30,2013-04-04 20:53:00
5:29 PM,44.6,44.6,100,30.02,4.0,NNE,6.9,-,0.01,,Light Drizzle,30,2013-04-04 21:29:00
5:53 PM,45.0,44.1,97,30.02,2.0,NE,4.6,-,0.01,,Light Drizzle,40,2013-04-04 21:53:00
6:24 PM,46.4,44.6,93,30.01,3.0,ENE,4.6,-,0.01,Rain,Light Rain,60,2013-04-04 22:24:00
6:45 PM,44.6,44.6,100,29.99,4.0,ENE,5.8,-,0.01,,Overcast,60,2013-04-04 22:45:00
6:53 PM,46.0,44.1,93,30.00,5.0,NE,4.6,-,0.01,,Overcast,50,2013-04-04 22:53:00
7:01 PM,46.4,44.6,93,30.00,6.0,NNE,5.8,-,N/A,,Overcast,30,2013-04-04 23:01:00
7:53 PM,46.0,44.1,93,30.00,7.0,NNE,4.6,-,N/A,,Overcast,30,2013-04-04 23:53:00
8:05 PM,46.4,44.6,93,30.00,7.0,NE,5.8,-,N/A,,Overcast,40,2013-04-05 00:05:00
8:50 PM,46.4,44.6,93,29.99,6.0,NNE,4.6,-,N/A,,Overcast,30,2013-04-05 00:50:00
8:53 PM,46.0,44.1,93,29.99,6.0,NE,3.5,-,N/A,,Overcast,40,2013-04-05 00:53:00
9:53 PM,46.0,44.1,93,30.00,6.0,NE,3.5,-,N/A,,Overcast,40,2013-04-05 01:53:00
10:10 PM,46.4,44.6,93,30.00,6.0,NE,5.8,-,N/A,,Overcast,40,2013-04-05 02:10:00
10:28 PM,46.4,44.6,93,30.00,4.0,NNE,5.8,-,N/A,,Overcast,30,2013-04-05 02:28:00
10:53 PM,46.0,44.1,93,30.01,4.0,NNE,5.8,-,N/A,,Overcast,30,2013-04-05 02:53:00
11:40 PM,44.6,44.6,100,30.00,1.8,NE,6.9,-,0.00,,Light Drizzle,40,2013-04-05 03:40:00
11:50 PM,44.6,44.6,100,30.00,3.0,NNE,6.9,-,0.00,,Light Drizzle,30,2013-04-05 03:50:00
11:53 PM,45.0,44.1,97,30.00,3.0,NNE,6.9,-,0.00,,Light Drizzle,30,2013-04-05 03:53:00